RH
86 88 84 80 79 83 83 87 87 93 99 100 97 95 90 87 84 90 83 80 80 89 95 93 89 90 98 91 93 86 81 78 81 82 84 82 84 81 82 86 95 94 89
94 99 98 91 88 87 91 88 96 100 100 100 100 97 93 87 81 83 78 82 81 82 93 93 90 90 95 91 94 80 80 82 80 81 83 87 88 88 90 94 90 89 90
99 100 99 97 95 96 99 100 100 100 99 100 100 100 98 92 88 87 78 78 81 80 89 90 88 84 90 96 94 81 78 83 86 86 91 94 87 87 95 93 95 96 98
99 99 99 98 100 93 93 92 99 100 100 100 100 97 94 94 93 92 88 82 83 89 85 84 86 84 92 95 94 92 79 86 89 89 96 96 93 95 93 96 91 90 90
98 99 99 98 100 97 98 98 100 100 100 100 100 100 100 100 93 84 83 90 100 90 89 83 77 80 90 91 94 96 94 89 93 86 95 97 97 93 97 96 92 89 91
100 100 98 94 100 100 100 100 100 100 99 99 100 100 100 100 100 99 99 97 99 94 86 83 80 78 81 90 96 100 97 97 98 96 95 93 94 98 98 99 86 86 95
100 100 99 96 100 98 99 100 100 99 100 100 96 100 100 100 100 100 99 99 99 99 86 87 88 86 92 92 99 99 100 100 100 98 96 96 99 91 94 99 94 92 97
99 100 100 100 99 100 100 100 99 99 100 100 98 98 100 99 99 100 100 100 100 99 100 94 100 96 100 97 100 100 100 100 100 98 98 95 99 100 99 100 100 99 99
99 100 97 100 100 100 100 99 99 99 98 100 95 90 99 99 100 100 100 99 100 97 99 100 100 99 100 96 99 100 98 98 99 99 98 98 99 100 100 99 98 96 95
100 100 100 99 98 100 100 100 100 99 98 100 100 95 92 92 98 99 99 99 100 100 100 93 97 96 94 90 94 90 92 92 96 99 99 99 100 97 96 94 91 95 96
100 100 100 98 100 99 100 99 100 100 100 100 98 99 91 94 90 94 99 100 99 99 100 100 100 100 100 92 94 91 94 88 89 93 97 97 93 89 96 91 94 91 91
99 100 100 100 100 100 100 100 99 100 100 100 99 97 97 97 92 91 96 100 99 100 100 100 100 100 100 100 99 96 96 90 86 90 95 92 92 93 96 94 94 94 92
98 100 99 100 100 100 99 100 99 98 97 97 96 96 93 92 93 93 93 100 99 100 99 100 100 100 100 99 100 98 88 88 92 92 97 97 95 96 96 95 94 93 89
99 100 100 100 100 100 99 100 100 100 100 98 93 88 92 90 89 88 96 97 99 99 99 99 100 100 100 100 99 100 95 91 91 88 90 96 93 92 95 95 92 91 89
100 100 100 99 100 100 99 100 99 99 99 100 100 97 96 96 95 94 92 93 94 99 98 100 100 100 100 100 100 100 100 100 98 97 90 99 93 91 92 92 92 92 89
98 100 99 100 99 99 100 100 100 100 99 99 100 100 100 98 99 99 95 98 94 93 98 97 99 100 100 98 100 100 100 99 96 99 99 99 89 87 87 90 89 93 94
98 98 99 98 99 99 100 99 100 100 99 100 98 99 99 100 100 99 99 99 99 95 95 100 96 98 99 100 100 100 100 100 100 100 100 94 88 84 80 89 90 94 95
96 96 98 97 98 97 97 97 99 98 97 99 100 98 99 100 100 100 100 100 100 100 94 97 100 97 98 99 99 100 100 100 100 100 100 94 91 85 82 87 92 96 97
96 96 95 96 97 98 97 95 94 96 96 97 95 93 97 97 98 100 100 100 99 99 99 97 98 99 98 100 98 98 100 100 100 100 100 100 97 91 87 91 92 94 92
96 97 97 96 83 92 97 97 96 95 94 96 93 91 90 90 93 95 98 98 98 98 99 99 98 98 98 100 100 97 98 99 99 100 100 100 100 98 87 89 90 88 88
96 98 97 98 98 92 80 84 95 97 97 97 98 99 99 99 97 93 92 95 93 93 98 99 98 97 97 97 98 99 100 99 100 100 100 99 99 99 91 86 86 86 88
95 92 94 96 97 97 98 100 85 89 86 96 96 84 93 99 100 100 100 99 92 93 95 98 99 99 97 97 97 97 98 97 98 99 99 98 98 94 92 86 88 88 91
56 75 81 82 91 97 95 100 90 88 91 92 89 89 96 89 76 78 91 98 100 100 93 91 95 95 96 97 97 97 97 96 97 96 97 92 94 96 95 96 89 88 92
37 37 36 78 85 94 90 95 90 78 80 86 82 85 97 100 96 90 90 88 96 98 86 81 90 95 96 95 96 97 97 97 97 96 96 95 81 54 66 91 96 99 94
50 58 47 35 81 83 84 84 70 80 79 86 92 82 92 98 99 97 88 92 88 91 98 100 97 97 84 87 95 96 97 97 97 96 96 86 63 35 31 51 87 93 92
46 48 42 39 74 83 78 83 59 64 75 78 76 87 85 84 89 96 75 79 91 100 94 86 90 92 96 86 89 87 93 97 98 98 93 78 62 44 48 36 36 46 61
Wind_Speed
19 18 18 19 20 22 24 26 27 30 35 40 42 40 36 33 31 31 31 29 30 28 29 27 27 28 27 28 29 28 28 28 29 28 27 27 27 27 25 25 25 26 25
19 18 17 17 18 20 24 26 28 31 35 42 42 38 36 32 30 30 28 29 29 29 31 29 27 30 30 30 30 30 28 28 29 29 28 29 28 28 27 23 25 24 25
19 19 19 17 17 21 21 21 29 33 37 35 41 34 30 29 25 24 26 28 30 30 32 31 31 32 34 33 31 32 30 30 31 30 27 27 30 29 26 26 29 28 28
19 19 18 19 20 20 22 22 24 22 33 38 29 29 24 24 25 23 22 28 30 31 32 34 35 36 34 35 33 31 33 34 33 32 28 29 35 30 31 30 28 27 25
20 22 20 21 23 25 30 32 28 24 25 28 27 23 23 22 25 26 25 26 28 33 34 34 35 38 37 36 35 33 31 32 37 35 33 35 35 32 28 27 26 24 22
23 25 24 24 26 30 32 29 28 24 25 26 23 18 15 15 15 20 21 19 25 32 36 37 36 38 39 40 39 35 34 39 41 40 36 32 30 28 26 26 25 23 21
20 27 28 29 29 29 29 30 28 29 24 24 24 15 9 10 14 17 16 18 22 32 34 38 38 40 39 42 45 41 42 40 38 35 32 29 26 23 21 19 18 17 18
13 17 26 33 32 32 34 32 32 23 23 28 8 9 2 3 3 10 14 18 17 23 27 30 39 43 36 41 41 47 40 36 32 29 27 25 23 22 21 20 19 18 18
9 13 14 21 28 33 36 39 33 29 21 22 19 7 2 3 5 4 7 12 16 18 18 22 24 36 32 33 34 32 31 28 26 24 23 24 21 22 19 18 18 17 16
11 10 12 13 17 18 27 30 32 31 27 23 18 12 7 7 3 2 1 6 11 18 22 22 21 24 31 24 29 29 29 28 24 22 21 20 20 18 18 18 19 19 20
12 12 11 12 14 19 17 21 22 26 23 22 14 9 6 5 8 4 3 2 9 13 20 29 34 41 41 40 38 35 34 31 25 21 19 19 18 20 21 20 20 20 21
15 12 12 12 16 15 14 16 19 16 18 19 14 12 7 3 2 3 3 3 4 10 12 16 26 43 45 43 41 38 35 29 29 27 25 22 22 21 20 21 20 19 20
16 13 13 13 15 17 18 18 16 12 14 14 13 13 10 12 4 3 4 5 3 3 6 12 15 32 33 39 38 37 33 32 33 31 28 26 24 23 22 21 20 20 18
17 13 15 15 14 14 14 14 16 16 14 13 14 11 9 8 8 4 2 7 3 2 1 3 12 24 27 33 34 34 34 36 35 33 31 29 29 25 22 20 20 20 18
20 17 18 18 19 18 16 14 17 15 16 13 14 15 12 13 9 6 3 4 4 3 2 5 3 15 18 24 34 34 37 35 34 34 32 33 34 30 26 22 19 18 18
22 22 21 21 24 21 21 20 21 19 19 16 13 14 13 12 12 10 8 8 5 4 3 2 1 10 17 19 26 34 33 31 30 33 34 37 35 33 27 23 22 20 20
26 26 25 25 24 24 22 25 25 24 23 21 17 13 14 11 12 12 10 8 7 7 7 4 6 2 11 16 18 24 30 30 29 30 36 36 35 34 32 27 23 19 18
27 27 29 29 27 27 24 24 25 25 25 24 22 21 16 12 12 12 10 9 9 6 6 10 8 8 6 9 8 12 16 23 24 26 33 33 32 31 29 28 24 20 18
28 29 30 29 28 28 28 27 27 27 27 25 23 22 18 15 16 12 11 10 7 3 3 6 6 8 8 12 12 9 8 15 21 20 15 20 24 23 22 20 20 18 18
34 32 30 29 27 26 27 27 28 28 28 28 26 24 20 19 16 15 13 12 8 7 7 9 8 6 5 10 15 17 14 10 11 17 17 15 14 13 14 16 16 18 18
31 34 31 29 27 26 23 24 24 26 28 29 29 29 23 20 18 15 14 13 10 11 10 8 7 4 3 3 7 11 16 20 20 17 14 11 10 12 12 14 18 20 19
24 29 34 33 28 25 21 20 23 25 25 23 23 24 23 24 22 19 17 15 12 12 11 8 5 4 4 5 6 8 11 8 4 18 18 17 15 15 18 20 19 18 18
18 19 21 25 28 23 19 19 20 23 23 22 22 21 22 19 17 17 16 17 17 15 11 9 8 5 3 4 6 8 11 10 3 4 13 10 17 22 24 24 24 21 19
17 17 17 18 22 20 15 15 16 20 21 22 22 20 20 17 15 15 15 17 17 17 15 11 8 5 3 2 4 7 10 11 11 10 9 6 16 20 22 26 25 20 19
14 14 14 15 17 18 13 12 12 15 18 19 21 18 19 19 18 16 16 14 12 9 9 11 11 7 6 4 4 6 7 9 4 7 12 11 13 14 22 25 27 25 21
12 11 12 13 13 16 12 11 10 12 14 12 13 15 13 14 13 14 15 14 14 10 8 5 3 4 4 4 1 4 7 9 5 3 12 13 13 12 7 19 23 24 23
Wind_Direction
202 204 202 202 205 207 208 204 206 203 202 196 190 188 189 193 196 196 189 189 191 182 175 173 174 176 170 165 162 159 155 153 154 153 151 146 141 136 130 131 129 125 122
206 204 202 199 198 204 209 209 209 206 193 193 181 187 189 190 195 205 202 196 196 190 182 177 175 178 177 172 168 165 162 162 153 148 151 146 143 139 137 139 133 128 126
209 207 215 213 204 196 197 201 205 190 177 166 169 179 181 188 195 211 212 212 198 198 190 183 179 175 181 177 171 169 171 170 159 155 157 157 145 144 137 132 135 120 125
207 217 212 208 206 194 183 180 178 163 150 150 153 170 181 194 200 207 217 221 203 204 201 191 187 185 182 176 174 173 177 175 165 163 152 149 154 143 137 132 133 129 124
213 207 203 197 194 182 175 169 172 170 160 156 159 157 166 187 203 207 225 241 226 208 205 202 197 192 188 182 179 177 174 174 168 164 151 142 145 145 139 136 135 132 130
212 208 197 195 192 184 182 185 181 176 165 155 149 153 165 174 180 195 217 229 227 215 207 206 203 200 195 187 184 175 167 163 158 157 155 153 150 144 141 140 145 144 139
200 208 199 193 190 192 194 196 179 170 154 158 140 113 125 179 182 192 201 212 218 221 217 211 201 204 204 199 179 173 163 156 154 154 153 152 146 152 153 145 154 154 139
198 199 197 193 194 195 192 191 185 154 156 151 142 120 134 87 109 156 177 182 181 205 213 224 219 209 204 209 175 163 153 146 149 150 153 154 155 150 150 147 144 145 144
167 188 202 186 186 195 191 190 190 177 158 171 158 139 137 187 173 114 155 170 173 162 168 165 142 161 158 136 135 140 145 149 152 155 158 160 158 151 157 159 154 155 157
118 158 179 201 194 187 177 180 186 193 186 176 176 191 197 160 149 135 244 182 179 179 185 192 208 178 164 173 162 161 162 161 161 160 165 169 167 167 169 162 158 153 152
96 124 142 153 183 205 190 185 174 185 179 176 176 163 158 135 128 137 150 178 191 199 183 174 176 178 172 172 172 172 174 173 171 174 175 175 169 166 163 160 156 158 154
81 91 117 145 146 155 181 180 172 176 170 174 173 164 138 117 148 132 116 118 156 189 186 179 168 170 169 171 176 174 174 173 173 173 169 169 166 165 164 160 158 157 156
76 84 101 118 131 150 162 168 169 150 129 149 156 139 113 64 136 117 117 117 134 153 195 187 165 156 168 173 173 175 176 172 173 172 170 171 170 168 168 167 164 161 162
92 91 102 106 117 128 136 154 151 153 153 152 146 143 142 129 74 61 120 145 104 81 130 174 191 168 174 179 181 180 175 177 177 178 173 174 170 172 171 171 170 168 168
92 101 100 103 112 114 121 124 121 130 136 143 145 144 151 133 126 115 125 151 119 137 175 160 168 190 182 177 177 181 180 182 181 181 177 177 175 173 172 174 172 170 169
87 88 99 101 99 104 111 116 116 116 119 118 125 132 133 118 144 136 139 177 204 133 118 135 126 186 193 178 178 182 184 188 193 189 184 172 177 173 172 175 178 174 173
83 84 85 89 92 97 100 105 103 110 110 111 109 108 108 130 125 123 127 168 177 188 124 135 179 44 205 178 181 180 185 188 197 192 179 180 180 181 181 181 182 179 184
83 83 82 85 86 90 95 98 102 103 104 101 105 105 99 110 110 120 129 147 175 178 145 144 161 187 204 219 183 168 164 166 165 176 180 180 184 186 189 190 190 185 187
82 83 83 77 84 88 93 95 97 97 97 97 96 97 97 97 96 104 122 126 122 126 134 144 130 169 188 207 205 193 178 145 144 149 152 161 181 188 194 193 190 191 196
78 84 86 85 82 83 86 89 94 93 92 86 84 85 89 94 96 101 99 103 110 112 103 116 101 126 165 196 205 203 209 185 161 150 150 151 157 165 177 186 194 198 201
73 79 86 84 75 75 81 91 90 92 96 96 92 86 77 81 85 91 99 103 114 106 104 105 103 111 140 177 207 204 202 204 207 202 200 191 166 168 189 203 206 208 208
76 80 76 77 77 72 74 79 93 93 94 89 87 91 89 88 83 83 83 87 94 109 113 115 113 128 159 189 205 210 205 192 209 216 215 219 221 215 217 218 221 221 216
73 75 76 77 72 67 69 71 88 92 93 92 91 91 86 83 87 89 85 84 82 79 86 101 112 110 142 202 202 206 209 208 189 199 209 224 227 225 221 219 219 221 219
71 70 74 78 79 68 66 68 80 91 90 85 81 85 85 80 78 80 87 84 80 71 67 74 79 93 128 168 185 219 219 220 229 234 208 239 233 236 237 228 227 225 220
75 67 75 80 84 79 70 68 91 92 91 86 83 73 80 71 74 75 79 76 75 80 83 69 74 73 55 60 149 160 191 182 176 224 213 218 237 238 235 231 230 226 226
76 80 76 81 81 84 80 76 87 94 92 85 83 82 70 67 64 66 67 63 59 60 66 87 117 114 97 118 148 198 199 193 184 194 222 212 226 207 217 233 229 225 223